TimeEDT,TemperatureF,Dew PointF,Humidity,Sea Level PressureIn,VisibilityMPH,Wind Direction,Wind SpeedMPH,Gust SpeedMPH,PrecipitationIn,Events,Conditions,WindDirDegrees,DateUTC
12:15 AM,34.0,31.8,92,29.92,10.0,Calm,Calm,-,N/A,,Clear,0,2012-11-02 04:15:00
12:35 AM,34.3,30.6,86,29.93,10.0,Calm,Calm,-,N/A,,Clear,0,2012-11-02 04:35:00
12:55 AM,33.3,29.8,87,29.93,10.0,Calm,Calm,-,N/A,,Clear,0,2012-11-02 04:55:00
1:15 AM,32.5,31.5,96,29.93,10.0,Calm,Calm,-,N/A,,Clear,0,2012-11-02 05:15:00
1:35 AM,32.4,30.6,93,29.94,10.0,Calm,Calm,-,N/A,,Clear,0,2012-11-02 05:35:00
1:55 AM,31.3,28.9,91,29.94,10.0,Calm,Calm,-,N/A,,Clear,0,2012-11-02 05:55:00
2:15 AM,32.9,31.3,94,29.94,10.0,Calm,Calm,-,N/A,,Clear,0,2012-11-02 06:15:00
2:35 AM,32.0,30.6,94,29.94,10.0,Calm,Calm,-,N/A,,Clear,0,2012-11-02 06:35:00
2:55 AM,30.2,28.9,95,29.94,10.0,Calm,Calm,-,N/A,,Clear,0,2012-11-02 06:55:00
3:15 AM,32.0,30.2,93,29.93,10.0,Calm,Calm,-,N/A,,Clear,0,2012-11-02 07:15:00
3:35 AM,31.6,30.2,94,29.94,10.0,Calm,Calm,-,N/A,,Clear,0,2012-11-02 07:35:00
3:55 AM,31.1,29.3,93,29.93,10.0,South,3.5,-,N/A,,Scattered Clouds,190,2012-11-02 07:55:00
4:15 AM,30.4,28.8,94,29.93,10.0,Calm,Calm,-,N/A,,Clear,0,2012-11-02 08:15:00
4:35 AM,31.3,28.9,91,29.93,10.0,Calm,Calm,-,N/A,,Clear,0,2012-11-02 08:35:00
4:55 AM,30.2,28.6,94,29.93,10.0,Calm,Calm,-,N/A,,Clear,0,2012-11-02 08:55:00
5:15 AM,31.3,29.3,92,29.93,10.0,SSW,3.5,-,N/A,,Clear,200,2012-11-02 09:15:00
5:35 AM,30.9,28.6,91,29.93,10.0,Calm,Calm,-,N/A,,Clear,0,2012-11-02 09:35:00
5:55 AM,31.6,29.1,90,29.93,10.0,Calm,Calm,-,N/A,,Clear,0,2012-11-02 09:55:00
6:15 AM,31.3,29.3,92,29.94,10.0,Calm,Calm,-,N/A,,Clear,0,2012-11-02 10:15:00
6:35 AM,31.1,29.1,92,29.93,10.0,Calm,Calm,-,N/A,,Clear,0,2012-11-02 10:35:00
6:55 AM,30.7,29.3,94,29.94,10.0,North,3.5,-,N/A,,Clear,360,2012-11-02 10:55:00
7:15 AM,30.2,28.0,92,29.94,10.0,SSW,4.6,-,N/A,,Scattered Clouds,210,2012-11-02 11:15:00
7:35 AM,29.7,28.0,94,29.93,10.0,Calm,Calm,-,N/A,,Scattered Clouds,0,2012-11-02 11:35:00
7:55 AM,30.9,28.4,90,29.93,10.0,Calm,Calm,-,N/A,,Clear,0,2012-11-02 11:55:00
8:15 AM,31.1,29.1,92,29.94,10.0,Calm,Calm,-,N/A,,Clear,0,2012-11-02 12:15:00
8:35 AM,33.3,31.3,92,29.94,10.0,Calm,Calm,-,N/A,,Clear,0,2012-11-02 12:35:00
8:55 AM,39.2,32.5,77,29.94,10.0,SSW,4.6,-,N/A,,Scattered Clouds,210,2012-11-02 12:55:00
9:15 AM,41.5,31.8,68,29.94,10.0,SW,4.6,-,N/A,,Scattered Clouds,220,2012-11-02 13:15:00
9:35 AM,42.4,32.5,68,29.94,10.0,SW,3.5,-,N/A,,Clear,220,2012-11-02 13:35:00
9:55 AM,46.4,32.4,58,29.94,10.0,SSW,3.5,-,N/A,,Scattered Clouds,200,2012-11-02 13:55:00
10:15 AM,49.1,32.9,54,29.93,10.0,SSW,5.8,-,N/A,,Clear,200,2012-11-02 14:15:00
10:35 AM,51.3,33.1,50,29.93,10.0,SW,4.6,-,N/A,,Clear,220,2012-11-02 14:35:00
10:55 AM,52.9,33.4,48,29.92,10.0,SSW,4.6,-,N/A,,Clear,200,2012-11-02 14:55:00
11:15 AM,54.7,34.5,47,29.92,10.0,SW,4.6,-,N/A,,Clear,220,2012-11-02 15:15:00
11:35 AM,57.2,35.4,44,29.91,10.0,SSW,8.1,-,N/A,,Clear,200,2012-11-02 15:35:00
11:55 AM,59.4,37.0,43,29.90,10.0,SW,6.9,-,N/A,,Clear,220,2012-11-02 15:55:00
12:15 PM,61.7,37.0,40,29.89,10.0,SSW,8.1,-,N/A,,Clear,210,2012-11-02 16:15:00
12:35 PM,62.8,35.4,36,29.88,10.0,West,10.4,-,N/A,,Clear,260,2012-11-02 16:35:00
12:55 PM,62.6,35.6,37,29.87,10.0,WSW,10.4,-,N/A,,Clear,250,2012-11-02 16:55:00
1:15 PM,63.1,36.5,37,29.86,10.0,WSW,10.4,-,N/A,,Clear,240,2012-11-02 17:15:00
1:35 PM,63.3,36.7,37,29.86,10.0,WSW,10.4,18.4,N/A,,Clear,250,2012-11-02 17:35:00
1:55 PM,62.6,36.3,38,29.87,10.0,WNW,5.8,18.4,N/A,,Clear,290,2012-11-02 17:55:00
2:15 PM,64.8,37.6,37,29.87,10.0,West,9.2,-,N/A,,Scattered Clouds,280,2012-11-02 18:15:00
2:35 PM,67.3,37.6,34,29.86,10.0,NW,10.4,-,N/A,,Mostly Cloudy,320,2012-11-02 18:35:00
2:55 PM,65.3,37.6,36,29.87,10.0,West,10.4,16.1,N/A,,Scattered Clouds,280,2012-11-02 18:55:00
3:15 PM,66.6,38.5,36,29.86,10.0,WNW,3.5,9.2,N/A,,Clear,290,2012-11-02 19:15:00
3:35 PM,66.4,37.6,35,29.87,10.0,WNW,9.2,18.4,N/A,,Clear,290,2012-11-02 19:35:00
3:55 PM,66.4,37.8,35,29.87,10.0,WNW,5.8,16.1,N/A,,Clear,300,2012-11-02 19:55:00
4:15 PM,66.0,37.8,35,29.87,10.0,West,10.4,-,N/A,,Clear,270,2012-11-02 20:15:00
4:35 PM,64.8,38.1,37,29.88,10.0,West,6.9,-,N/A,,Clear,280,2012-11-02 20:35:00
4:55 PM,64.4,38.5,38,29.88,10.0,West,5.8,-,N/A,,Clear,280,2012-11-02 20:55:00
5:15 PM,62.8,38.3,40,29.89,10.0,North,4.6,-,N/A,,Clear,10,2012-11-02 21:15:00
5:35 PM,61.0,38.7,44,29.89,10.0,NNE,4.6,-,N/A,,Clear,20,2012-11-02 21:35:00
5:55 PM,59.9,38.7,45,29.90,10.0,North,3.5,-,N/A,,Clear,10,2012-11-02 21:55:00
6:15 PM,57.6,39.4,51,29.91,10.0,Calm,Calm,-,N/A,,Clear,0,2012-11-02 22:15:00
6:35 PM,53.6,39.6,59,29.92,10.0,Calm,Calm,-,N/A,,Clear,0,2012-11-02 22:35:00
6:55 PM,50.0,38.7,65,29.93,10.0,Calm,Calm,-,N/A,,Clear,0,2012-11-02 22:55:00
7:15 PM,50.0,38.3,64,29.94,10.0,Calm,Calm,-,N/A,,Clear,0,2012-11-02 23:15:00
7:55 PM,44.2,37.8,78,29.96,10.0,Calm,Calm,-,N/A,,Clear,0,2012-11-02 23:55:00
8:15 PM,43.7,38.1,81,29.97,10.0,Calm,Calm,-,N/A,,Clear,0,2012-11-03 00:15:00
8:35 PM,43.5,36.7,77,29.97,10.0,Calm,Calm,-,N/A,,Clear,0,2012-11-03 00:35:00
8:55 PM,41.7,36.3,81,29.98,10.0,Calm,Calm,-,N/A,,Clear,0,2012-11-03 00:55:00
9:15 PM,39.9,34.7,82,29.99,10.0,Calm,Calm,-,N/A,,Clear,0,2012-11-03 01:15:00
9:35 PM,38.8,35.8,89,29.99,10.0,Calm,Calm,-,N/A,,Clear,0,2012-11-03 01:35:00
9:55 PM,38.1,34.5,87,29.99,10.0,Calm,Calm,-,N/A,,Clear,0,2012-11-03 01:55:00
10:15 PM,39.2,34.5,83,30.00,10.0,Calm,Calm,-,N/A,,Clear,0,2012-11-03 02:15:00
10:35 PM,36.7,33.8,89,30.01,10.0,Calm,Calm,-,N/A,,Clear,0,2012-11-03 02:35:00
10:55 PM,35.1,32.9,92,30.01,10.0,Calm,Calm,-,N/A,,Clear,0,2012-11-03 02:55:00
11:15 PM,35.8,33.3,91,30.02,10.0,Calm,Calm,-,N/A,,Clear,0,2012-11-03 03:15:00
11:35 PM,35.4,32.4,89,30.02,10.0,Calm,Calm,-,N/A,,Clear,0,2012-11-03 03:35:00
11:55 PM,33.4,31.5,92,30.02,10.0,Calm,Calm,-,N/A,,Clear,0,2012-11-03 03:55:00